Regional Weather Roundup
Issued by NWS

Home | Current Version | Previous Version | Graphics & Text | Print | Product List | Glossary On
Versions: 1 2 3 4 5 6 7 8 9 10 11 12 13 14 15 16 17 18 19 20 21 22 23 24 25 26 27 28
000
ASUS45 KCYS 191110
RWRWY

WYOMING REGIONAL WEATHER ROUNDUP
NATIONAL WEATHER SERVICE CHEYENNE WY
400 AM MST MON FEB 19 2018

NOTE:  "FAIR" INDICATES FEW OR NO CLOUDS BELOW 12,000 FEET
WITH NO SIGNIFICANT WEATHER AND/OR OBSTRUCTIONS TO VISIBILITY.

WYZ001-191200-
YELLOWSTONE NATIONAL PARK

CITY           SKY/WX    TMP DP  RH WIND       PRES   REMARKS
LK YELLOWSTONE   N/A      2  -1  88 CALM      29.43S
W YELLOWSTONE  NOT AVBL

$$
WYZ002>013-054>058-071-098>099-191200-
NORTHERN WYOMING

CITY           SKY/WX    TMP DP  RH WIND       PRES   REMARKS
JACKSON        FLURRIES  12   8  84 N10       29.45S WCI  -1
CODY           CLOUDY    -2  -9  72 NE6       29.78R WCI -14
GREYBULL       CLOUDY     2  -2  83 NW14      29.86R WCI -16
WORLAND        CLOUDY     3  -2  79 N7        29.82S WCI  -9
SHERIDAN       CLOUDY     0  -3  87 NE3       29.89F
BUFFALO        CLOUDY     0  -4  83 N5        29.80F WCI -10
GILLETTE       MOCLDY    -1  -5  82 N14       29.83F WCI -20
HULETT         FLURRIES   1  -4  78 MISG      29.88R
NEWCASTLE      LGT SNOW   7   3  85 SE15      29.84F WCI -11

$$
WYZ014>020-022>026-101>103-191200-
CENTRAL WYOMING

CITY           SKY/WX    TMP DP  RH WIND       PRES   REMARKS
BIG PINEY      LGT SNOW  13  11  92 S14       29.42R FOG     WCI  -2
PINEDALE       LGT SNOW  18  16  93 S12       29.41S WCI   5
DUBOIS         NOT AVBL
LANDER         LGT SNOW   2  -2  83 NE6       29.67S VSB 1   WCI  -9
RIVERTON       LGT SNOW   2  -4  76 E9        29.68F VSB 1   WCI -13
CASPER         CLOUDY    -2  -5  87 NE15      29.72R FOG     WCI -22
DOUGLAS        SNOW       1  -3  83 NE3       29.76F VSB 1/2

$$
WYZ021-027>030-104>119-191200-
SOUTHERN WYOMING

CITY           SKY/WX    TMP DP  RH WIND       PRES   REMARKS
EVANSTON       LGT SNOW  20  18  92 NE5       29.38F VSB 3/4 WCI  13
FORT BRIDGER   LGT SNOW  18  18 100 SE10      29.43  WCI   6
ROCK SPRINGS   LGT SNOW   5   0  79 E22       29.44F WCI -16
DIXON          LGT SNOW  17  15  89 W5        29.40F WCI  10
RAWLINS        CLOUDY     2  -3  80 NE13      29.47F HAZE    WCI -15
SARATOGA       LGT SNOW   9   9 100 W7        29.43F WCI  -3
LARAMIE        LGT SNOW   9   7  92 SE24G31   29.45S VSB 3/4 WCI -12
CHEYENNE       LGT SNOW   3   0  87 N10       29.63S FOG     WCI -12
TORRINGTON     CLOUDY     7   2  80 N12       29.82S WCI  -8
PINE BLUFFS    CLOUDY     9   3  78 N13       29.70F WCI  -7

$$




USA.gov is the U.S. government's official web portal to all federal, state and local government web resources and services.